CW5467 Weather Reports


time (UTC)temp
F
wind
direction
speed
knots
gust
knots
rain 1hr
in
rain 24hr
in
rain mn
in
humidity
%
barometer
mb
20260906122003 56 67 0.0 0.0 0.00 0.02 0.00 94 1020.9
20260906121000 56 67 0.0 0.0 0.00 0.02 0.00 94 1020.6
20260906120003 55 67 0.0 0.0 0.00 0.02 0.00 94 1020.4
20260906114959 54 67 0.0 0.0 0.00 0.02 0.00 94 1020.4
20260906113958 53 67 0.0 0.0 0.00 0.02 0.00 94 1020.4
20260906113000 53 67 0.0 0.0 0.00 0.02 0.00 94 1020.4
20260906111959 53 67 0.0 0.0 0.00 0.02 0.00 94 1020.3
20260906110958 52 67 0.0 0.0 0.00 0.02 0.00 94 1020.2
20260906110005 52 67 0.0 0.0 0.00 0.02 0.00 93 1020.1
20260906104958 52 67 0.0 0.0 0.00 0.02 0.00 93 1020.0
20260906104000 53 67 0.0 0.0 0.00 0.02 0.00 93 1020.2
20260906103000 53 67 0.0 0.0 0.00 0.02 0.00 93 1020.2
20260906101959 53 67 0.0 0.0 0.00 0.02 0.00 93 1020.0
20260906100959 53 67 0.0 0.0 0.00 0.02 0.00 93 1019.8
20260906094959 54 67 0.0 0.0 0.00 0.02 0.00 92 1019.9
20260906093003 55 67 0.0 0.0 0.00 0.02 0.00 92 1019.9
20260906092000 56 67 0.0 1.7 0.00 0.02 0.00 92 1019.8
20260906091002 56 67 1.7 3.5 0.00 0.02 0.00 92 1019.6
20260906090004 56 74 1.7 3.5 0.00 0.02 0.00 92 1019.5
20260906085001 56 85 1.7 2.6 0.00 0.02 0.00 92 1019.5
20260906084001 56 53 1.7 3.5 0.00 0.02 0.00 92 1019.6
20260906083001 56 65 1.7 3.5 0.00 0.02 0.00 92 1019.4
20260906082000 56 49 1.7 2.6 0.00 0.02 0.00 92 1019.4
20260906081001 57 73 0.9 2.6 0.00 0.02 0.00 92 1019.4
20260906075958 57 73 0.9 3.5 0.00 0.02 0.00 92 1019.4
20260906075002 57 62 0.9 4.3 0.00 0.02 0.00 92 1019.3
20260906074000 57 58 0.9 5.2 0.00 0.02 0.00 92 1019.1
20260906073000 57 63 0.9 2.6 0.00 0.02 0.00 92 1018.9
20260906072002 57 63 1.7 4.3 0.00 0.02 0.00 92 1019.0
20260906071001 57 53 0.9 2.6 0.00 0.02 0.00 92 1019.2
20260906070006 57 74 0.0 1.7 0.00 0.02 0.00 92 1019.2
20260906064001 58 74 0.0 1.7 0.00 0.02 0.00 91 1019.2
20260906062959 58 74 0.0 0.9 0.00 0.02 0.00 91 1019.2
20260906061958 59 74 0.0 2.6 0.00 0.02 0.00 91 1019.2
20260906060958 59 96 0.0 0.9 0.00 0.02 0.00 91 1019.2
20260906060002 59 96 0.0 1.7 0.00 0.02 0.00 90 1019.1
20260906053000 60 83 1.7 5.2 0.00 0.02 0.00 89 1018.8
20260906051959 61 63 2.6 5.2 0.00 0.02 0.00 88 1018.8
20260906050959 62 83 1.7 5.2 0.00 0.02 0.00 87 1018.9
20260906050003 62 76 2.6 7.0 0.00 0.02 0.00 87 1018.9
20260906045000 62 77 3.5 5.2 0.00 0.02 0.00 86 1018.7
20260906044002 63 88 5.2 8.7 0.00 0.02 0.00 86 1018.5
20260906043002 63 67 3.5 6.1 0.00 0.02 0.00 87 1018.6
20260906041001 64 78 3.5 7.8 0.00 0.02 0.00 87 1018.2
20260906040007 64 65 4.3 7.8 0.00 0.02 0.00 87 1018.2
20260906034003 65 92 5.2 8.7 0.00 0.02 0.02 89 1018.1
20260906032002 65 97 3.5 7.8 0.00 0.02 0.02 89 1018.2
20260906031000 65 69 3.5 7.0 0.00 0.02 0.02 90 1018.0
20260906025958 66 68 2.6 6.1 0.00 0.02 0.02 90 1017.9
20260906025002 66 71 1.7 5.2 0.00 0.02 0.02 89 1017.9
20260906022001 67 92 3.5 7.0 0.00 0.02 0.02 90 1017.5
20260906020958 66 63 3.5 5.2 0.00 0.02 0.02 91 1017.5
20260906020004 66 65 2.6 5.2 0.00 0.02 0.02 91 1017.6
20260906013003 67 64 2.6 4.3 0.00 0.02 0.02 91 1017.4
20260906012000 68 67 1.7 3.5 0.00 0.02 0.02 91 1017.2
20260906011002 68 58 0.9 3.5 0.00 0.02 0.02 92 1017.1
20260906010004 68 61 2.6 3.5 0.00 0.02 0.02 92 1016.9
20260906005004 68 45 0.9 2.6 0.00 0.02 0.02 92 1016.7
20260906004001 68 46 0.0 0.0 0.00 0.02 0.02 92 1016.6
20260906003002 69 46 0.0 0.0 0.00 0.02 0.02 92 1016.5
20260906002003 69 46 0.0 0.0 0.00 0.02 0.02 91 1016.6
20260906001000 69 46 0.0 0.0 0.00 0.02 0.02 91 1016.6
20260905235003 71 46 0.0 0.0 0.00 0.02 0.02 89 1016.4
20260905233004 72 46 0.0 0.0 0.00 0.02 0.02 90 1016.5
20260905232003 72 46 0.9 3.5 0.00 0.02 0.02 89 1016.6
20260905230004 73 43 2.6 5.2 0.00 0.02 0.02 87 1016.5
20260905224001 73 47 3.5 8.7 0.00 0.02 0.02 87 1016.3
20260905223001 73 78 4.3 7.8 0.00 0.02 0.02 86 1016.3
20260905222003 74 58 4.3 7.8 0.00 0.02 0.02 87 1016.0
20260905220006 74 71 3.5 5.2 0.00 0.02 0.02 90 1016.0
20260905215003 74 80 2.6 6.1 0.00 0.02 0.02 92 1016.0
20260905214000 73 76 2.6 7.0 0.00 0.02 0.02 92 1016.0
20260905212003 72 62 2.6 5.2 0.02 0.02 0.02 93 1015.9
20260905210959 72 74 2.6 4.3 0.02 0.02 0.02 93 1015.8
20260905210004 71 64 2.6 4.3 0.02 0.02 0.02 93 1015.8
20260905204959 71 92 2.6 5.2 0.02 0.02 0.02 93 1015.9
20260905204001 71 82 3.5 7.0 0.02 0.02 0.02 92 1016.0
20260905202002 71 46 3.5 7.8 0.00 0.00 0.00 92 1016.2
20260905201002 71 60 3.5 9.6 0.00 0.00 0.00 92 1016.3
20260905200004 71 65 7.0 12.2 0.00 0.00 0.00 90 1016.2
20260905195004 72 60 6.1 13.0 0.00 0.00 0.00 90 1016.2
20260905194000 72 49 5.2 11.3 0.00 0.00 0.00 91 1016.2
20260905192002 71 63 6.1 10.4 0.00 0.00 0.00 91 1016.4
20260905191002 71 59 4.3 9.6 0.00 0.00 0.00 91 1016.5
20260905190006 71 68 7.0 11.3 0.00 0.00 0.00 91 1016.5
20260905184002 70 66 5.2 8.7 0.00 0.00 0.00 91 1016.5
20260905182958 70 52 5.2 9.6 0.00 0.00 0.00 91 1016.5
20260905182003 71 51 6.1 10.4 0.00 0.00 0.00 91 1016.4
20260905181002 71 44 6.1 8.7 0.00 0.00 0.00 91 1016.4
20260905180006 71 73 4.3 7.0 0.00 0.00 0.00 92 1016.6
20260905174959 70 55 5.2 7.8 0.00 0.00 0.00 92 1016.6
20260905174003 71 63 5.2 7.8 0.00 0.00 0.00 92 1016.5
20260905173000 70 53 5.2 7.8 0.00 0.00 0.00 92 1016.5
20260905172002 70 80 3.5 7.8 0.00 0.00 0.00 92 1016.6
20260905170959 70 62 5.2 8.7 0.00 0.00 0.00 92 1016.7
20260905170004 70 42 4.3 6.1 0.00 0.00 0.00 92 1016.6
20260905165000 71 69 3.5 7.8 0.00 0.03 0.00 92 1016.6
20260905164002 71 37 3.5 6.1 0.00 0.03 0.00 92 1016.6
20260905161958 70 81 1.7 5.2 0.00 0.03 0.00 93 1016.5
20260905154959 69 87 3.5 7.8 0.00 0.04 0.00 93 1016.4
20260905154000 68 88 4.3 7.0 0.00 0.04 0.00 94 1016.4
20260905153001 68 73 5.2 7.8 0.00 0.04 0.00 94 1016.5
20260905152001 68 75 3.5 6.1 0.00 0.04 0.00 94 1016.4
20260905151001 68 73 2.6 7.0 0.00 0.04 0.00 94 1016.3
20260905150004 68 50 3.5 7.8 0.00 0.04 0.00 94 1016.3
20260905145001 68 66 5.2 7.8 0.00 0.24 0.00 94 1016.1
20260905144002 68 78 5.2 8.7 0.00 0.24 0.00 94 1016.0
20260905141959 68 60 3.5 7.8 0.00 0.24 0.00 94 1015.9
20260905141002 68 52 3.5 8.7 0.00 0.24 0.00 94 1015.8
20260905134002 69 78 4.3 7.8 0.00 0.60 0.00 94 1015.7
20260905133003 69 69 4.3 7.8 0.00 0.60 0.00 94 1015.7
20260905132001 69 49 5.2 7.8 0.00 0.60 0.00 94 1015.6
20260905131003 70 49 5.2 8.7 0.00 0.60 0.00 94 1015.4
20260905125003 70 73 2.6 7.8 0.00 0.69 0.00 94 1015.3
20260905123959 70 82 4.3 7.8 0.00 0.69 0.00 94 1015.2
20260905123003 70 94 1.7 5.2 0.00 0.69 0.00 94 1015.1